Regional Weather Roundup
Issued by NWS

Home | Current Version | Previous Version | Graphics & Text | Print | Product List | Glossary On
Versions: 1 2 3 4 5 6 7 8 9 10 11 12 13 14 15 16 17 18 19 20 21 22 23 24 25 26 27 28 29 30 31 32 33 34 35 36 37 38 39 40 41 42 43 44 45 46 47 48 49 50
000
ASUS43 KBIS 040710
RWRND

NORTH DAKOTA REGIONAL WEATHER ROUNDUP
NATIONAL WEATHER SERVICE BISMARCK ND
200 AM CDT FRI SEP 04 2015

NOTE: "FAIR" INDICATES FEW OR NO CLOUDS BELOW 12,000 FEET WITH NO
SIGNIFICANT WEATHER AND/OR OBSTRUCTIONS TO VISIBILITY.


NDZ001>003-009>011-017-040800-
NORTHWEST NORTH DAKOTA

CITY           SKY/WX    TMP DP  RH WIND       PRES   REMARKS
WILLISTON      MOCLDY    69  43  38 N20G29    29.82R
MINOT          PTCLDY    66  60  81 W7        29.73R
MINOT AFB      PTCLDY    68  66  93 CALM      29.72R
$$

NDZ018>021-031>035-040>046-040800-
SOUTHWEST NORTH DAKOTA

CITY           SKY/WX    TMP DP  RH WIND       PRES   REMARKS
BISMARCK       PTCLDY    77  70  79 S12       29.71R
DICKINSON      MOCLDY    68  64  87 NE8       29.71S
GARRISON         N/A     71  67  87 NE5       29.73R
HETTINGER ARPT CLOUDY    71  55  56 E10       29.72F
$$

NDZ004>008-012>016-024-026-027-054-040800-
NORTHEAST NORTH DAKOTA

CITY           SKY/WX    TMP DP  RH WIND       PRES   REMARKS
GRAND FORKS    MOCLDY    76  72  87 S10       29.77R
GRND FRKS AFB  MOCLDY    76  73  91 S9        29.78R
DEVILS LAKE    MOCLDY    75  68  78 SE10      29.73S
$$

NDZ022-023-025-028>030-036>039-047>053-040800-
SOUTHEAST NORTH DAKOTA

CITY           SKY/WX    TMP DP  RH WIND       PRES   REMARKS
FARGO          MOCLDY    78  72  81 SE13      29.78S
JAMESTOWN      CLEAR     74  72  93 SE10      29.75F
$$




USA.gov is the U.S. government's official web portal to all federal, state and local government web resources and services.